Home   Weather   Bruck an der Mur   Past weeks

Flag for Austria Past Weather in Bruck an der Mur, Styria, Austria — Yesterday and Last 2 Weeks

Now
37 °F

Passing clouds.


Feels Like: 33 °F
Forecast: 26 / 55 °F
Wind: 6 mph from East

Location: Zeltweg

Current Time: Apr 24, 2017 at 12:01:20 am

Latest Report: Apr 23, 2017 at 10:50 pm


Visibility: 6 mi

Pressure: 30.15 "Hg

Humidity: 60%

Dew Point: 25 °F

Location of Bruck an der MurLocation

Past Weather in Bruck an der Mur — Graph

°F

Bruck an der Mur Temperature Yesterday

Maximum temperature yesterday: 50 °F (at 2:50 pm)
Minimum temperature yesterday: 34 °F (at 4:50 am)
Average temperature yesterday: 43 °F

High & Low Weather Summary for the Past Weeks

 TemperatureHumidityPressure
High73 °F (Apr 10, 3:20 pm)100% (Apr 10, 4:50 am)30.39 "Hg (Apr 10, 4:50 am)
Low23 °F (Apr 21, 4:50 am)23% (Apr 10, 3:50 pm)29.83 "Hg (Apr 17, 6:50 pm)
Average47 °F57%30.06 "Hg
* Reported Apr 8 10:50 pm — Apr 23 10:50 pm, Bruck an der Mur, Weather by CustomWeather, © 2017

Note: Actual official high and low records may vary slightly from our data, if they occured in-between our weather recording intervals... More about our weather records

Advertising

Bruck an der Mur Weather History for the Previous 24 Hours

Scroll right to see more
 ConditionsComfort  
Time TempWeatherWind HumidityBarometerVisibility
10:50 pm
Sun, Apr 23
37 °FPassing clouds.6 mph60%30.15 "Hg6 mi
9:50 pm41 °FPassing clouds.6 mph53%30.15 "Hg6 mi
8:50 pm45 °FPassing clouds.8 mph39%30.12 "Hg9 mi
7:50 pm45 °FScattered clouds.10 mph42%30.09 "Hg12 mi
6:50 pm48 °FPassing clouds.15 mph37%30.09 "Hg19 mi
5:50 pm48 °FPassing clouds.15 mph37%30.09 "Hg19 mi
4:50 pm48 °FScattered clouds.15 mph37%30.09 "Hg19 mi
3:50 pm50 °FScattered clouds.14 mph35%30.07 "Hg12 mi
2:50 pm50 °FScattered clouds.21 mph32%30.09 "Hg12 mi
1:50 pm48 °FPartly sunny.21 mph34%30.09 "Hg12 mi
12:50 pm48 °FPartly sunny.15 mph43%30.09 "Hg12 mi
11:50 am45 °FPartly sunny.6 mph49%30.09 "Hg12 mi
10:50 am43 °FPartly sunny.9 mph49%30.09 "Hg12 mi
9:50 am43 °FPartly sunny.9 mph53%30.09 "Hg12 mi
8:50 am41 °FScattered clouds.8 mph61%30.09 "Hg12 mi
7:50 am39 °FScattered clouds.7 mph65%30.07 "Hg12 mi
6:50 am34 °FPassing clouds.2 mph70%30.04 "Hg19 mi
5:50 am34 °FPassing clouds.5 mph81%30.04 "Hg19 mi
4:50 am34 °FPassing clouds.6 mph81%30.04 "Hg19 mi
1:50 am43 °FPassing clouds.5 mph66%30.01 "Hg19 mi
Weather by CustomWeather, © 2017

See weather overviewHow to use our weather pages